Flag for Poland Weather past 2 weeks in Koszalin, Poland

Now
71 °F

Sunny.


Feels Like: 76 °F
Forecast: 56 / 76 °F
Wind: 2 mph from North

Location: Koszalin

Current Time: Jul 1, 2015 at 7:40:37 PM

Latest Report: Jul 1, 2015 at 7:00 PM


Visibility: 28 mi

Pressure: 30.28 "Hg

Humidity: 56%

Dew point: 55 °F

Location of KoszalinLocation

Historic Weather in Koszalin — Graph

°F

Koszalin temperature yesterday

Maximum temperature yesterday: 66 °F (at 2:00 PM)
Minimum temperature yesterday: 56 °F (at 5:00 AM)
Average temperature yesterday: 61 °F

Past Weeks' High & Low Weather Summary

 TemperatureHumidityPressure
High71 °F (Jul 1, 6:00 PM)96% (Jun 22, 3:00 AM)30.29 "Hg (Jun 22, 3:00 AM)
Low45 °F (Jun 17, 4:00 AM)56% (Jun 29, 3:00 PM)29.60 "Hg (Jun 23, 4:00 AM)
Average57 °F82%29.99 "Hg
* Reported Jun 16 6:00 PM — Jul 1 6:00 PM, Koszalin, Weather by CustomWeather, © 2015

Note: Actual official high and low records may vary slightly from our data, if they occured in-between our weather recording intervals... More about our weather records

Advertising

Koszalin weather history for previous 24 hours

 ConditionsComfort  
Time TempWeatherWind HumidityBarometerVisibility
6:00 PM
Wed, Jul 1
71 °FPassing clouds.3 mph66%30.27 "Hg22 mi
5:00 PM69 °FPassing clouds.5 mph68%30.28 "Hg19 mi
4:00 PM67 °FPassing clouds.3 mph73%30.29 "Hg19 mi
3:00 PM69 °FPassing clouds.3 mph67%30.29 "Hg19 mi
2:00 PM67 °FPassing clouds.3 mph63%30.29 "Hg22 mi
1:00 PM68 °FPassing clouds.5 mph65%30.29 "Hg22 mi
12:00 PM67 °FPassing clouds.3 mph67%30.29 "Hg22 mi
11:00 AM67 °FPassing clouds.3 mph69%30.29 "Hg19 mi
10:00 AM66 °FPassing clouds.3 mph72%30.28 "Hg22 mi
9:00 AM64 °FPassing clouds.3 mph74%30.27 "Hg19 mi
8:00 AM62 °FSunny.2 mph82%30.26 "Hg22 mi
7:00 AM57 °FSunny.1 mph88%30.25 "Hg14 mi
6:00 AM52 °FSunny.1 mph92%30.25 "Hg11 mi
5:00 AM51 °FSunny.2 mph93%30.24 "Hg9 mi
4:00 AM51 °FClear.1 mph93%30.22 "Hg9 mi
3:00 AM53 °FPassing clouds.2 mph92%30.22 "Hg10 mi
2:00 AM53 °FPassing clouds.1 mph91%30.22 "Hg10 mi
1:00 AM54 °FPassing clouds.2 mph89%30.22 "Hg12 mi
12:00 AM56 °FPassing clouds.1 mph87%30.21 "Hg12 mi
11:00 PM
Tue, Jun 30
57 °FPassing clouds.1 mph86%30.21 "Hg14 mi
10:00 PM57 °FPassing clouds.2 mph85%30.20 "Hg17 mi
9:00 PM59 °FScattered clouds.2 mph78%30.19 "Hg22 mi
8:00 PM62 °FPartly sunny.5 mph72%30.19 "Hg25 mi
Weather by CustomWeather, © 2015

See weather overviewHow to use our weather pages